owner,sensor,date,latitude,longitude,vertical_datum,wind_speed,wind_to_direction,wind_speed_of_gust,qcFlag 
COMPS,ioos:station:USF.COMPS:SHP:1,2016-07-01T00:00:00Z,30.0600,-84.2910,10.0,0.66,176.01,2.35,'1111122,1111122,1111122' 
COMPS,ioos:station:USF.COMPS:SHP:1,2016-07-01T00:06:00Z,30.0600,-84.2910,10.0,1.36,180.2,2.84,'1111122,1111122,1111122' 
COMPS,ioos:station:USF.COMPS:SHP:1,2016-07-01T00:12:00Z,30.0600,-84.2910,10.0,1.39,181.56,2.94,'1111122,1111122,1111122' 
COMPS,ioos:station:USF.COMPS:SHP:1,2016-07-01T00:18:00Z,30.0600,-84.2910,10.0,1.83,173.03,3.33,'1111122,1111122,1111122' 
COMPS,ioos:station:USF.COMPS:SHP:1,2016-07-01T00:24:00Z,30.0600,-84.2910,10.0,1.82,181.17,3.33,'1111122,1111122,1111122' 
COMPS,ioos:station:USF.COMPS:SHP:1,2016-07-01T00:30:00Z,30.0600,-84.2910,10.0,1.32,176.58,2.74,'1111122,1111122,1111122' 
COMPS,ioos:station:USF.COMPS:SHP:1,2016-07-01T00:36:00Z,30.0600,-84.2910,10.0,0.29,169.41,1.96,'1111122,1111122,1111122' 
COMPS,ioos:station:USF.COMPS:SHP:1,2016-07-01T00:42:00Z,30.0600,-84.2910,10.0,2.18,159.68,3.33,'1111122,1111122,1111122' 
COMPS,ioos:station:USF.COMPS:SHP:1,2016-07-01T00:48:00Z,30.0600,-84.2910,10.0,1.02,159.76,2.45,'1111122,1111122,1111122' 
COMPS,ioos:station:USF.COMPS:SHP:1,2016-07-01T00:54:00Z,30.0600,-84.2910,10.0,0.6,165.37,2.35,'1111122,1111122,1111122' 
COMPS,ioos:station:USF.COMPS:SHP:1,2016-07-01T01:00:00Z,30.0600,-84.2910,10.0,1.6,167.93,2.94,'1111122,1111122,1111122' 
COMPS,ioos:station:USF.COMPS:SHP:1,2016-07-01T01:06:00Z,30.0600,-84.2910,10.0,0.68,177.45,2.54,'1111122,1111122,1111122' 
COMPS,ioos:station:USF.COMPS:SHP:1,2016-07-01T01:12:00Z,30.0600,-84.2910,10.0,1.01,178.34,2.94,'1111122,1111122,1111122' 
COMPS,ioos:station:USF.COMPS:SHP:1,2016-07-01T01:18:00Z,30.0600,-84.2910,10.0,2.46,171.66,3.62,'1111122,1111122,1111122' 
COMPS,ioos:station:USF.COMPS:SHP:1,2016-07-01T01:24:00Z,30.0600,-84.2910,10.0,2.8,163.95,4.31,'1111122,1111122,1111122' 
COMPS,ioos:station:USF.COMPS:SHP:1,2016-07-01T01:30:00Z,30.0600,-84.2910,10.0,2.28,162.39,3.13,'1111122,1111122,1111122' 
COMPS,ioos:station:USF.COMPS:SHP:1,2016-07-01T01:36:00Z,30.0600,-84.2910,10.0,1.52,162.26,2.94,'1111122,1111122,1111122' 
COMPS,ioos:station:USF.COMPS:SHP:1,2016-07-01T01:42:00Z,30.0600,-84.2910,10.0,2.93,150.19,3.92,'1111122,1111122,1111122' 
COMPS,ioos:station:USF.COMPS:SHP:1,2016-07-01T01:48:00Z,30.0600,-84.2910,10.0,3.24,150.99,4.5,'1111122,1111122,1111122' 
COMPS,ioos:station:USF.COMPS:SHP:1,2016-07-01T01:54:00Z,30.0600,-84.2910,10.0,3.53,157.39,4.41,'1111122,1111122,1111122' 
COMPS,ioos:station:USF.COMPS:SHP:1,2016-07-01T02:00:00Z,30.0600,-84.2910,10.0,4.42,155.47,5.29,'1111122,1111122,1111122' 
COMPS,ioos:station:USF.COMPS:SHP:1,2016-07-01T02:06:00Z,30.0600,-84.2910,10.0,4.71,154.61,5.68,'1111122,1111122,1111122' 
COMPS,ioos:station:USF.COMPS:SHP:1,2016-07-01T02:12:00Z,30.0600,-84.2910,10.0,4.58,156.98,5.78,'1111122,1111122,1111122' 
COMPS,ioos:station:USF.COMPS:SHP:1,2016-07-01T02:18:00Z,30.0600,-84.2910,10.0,4.26,152.62,5.48,'1111122,1111122,1111122' 
COMPS,ioos:station:USF.COMPS:SHP:1,2016-07-01T02:24:00Z,30.0600,-84.2910,10.0,4.72,150.94,5.48,'1111122,1111122,1111122' 
COMPS,ioos:station:USF.COMPS:SHP:1,2016-07-01T02:30:00Z,30.0600,-84.2910,10.0,4.5,148.94,5.48,'1111122,1111122,1111122' 
COMPS,ioos:station:USF.COMPS:SHP:1,2016-07-01T02:36:00Z,30.0600,-84.2910,10.0,4.38,156.05,5.48,'1111122,1111122,1111122' 
COMPS,ioos:station:USF.COMPS:SHP:1,2016-07-01T02:42:00Z,30.0600,-84.2910,10.0,3.75,170.95,4.8,'1111122,1111122,1111122' 
COMPS,ioos:station:USF.COMPS:SHP:1,2016-07-01T02:48:00Z,30.0600,-84.2910,10.0,3.95,161.31,4.99,'1111122,1111122,1111122' 
COMPS,ioos:station:USF.COMPS:SHP:1,2016-07-01T02:54:00Z,30.0600,-84.2910,10.0,3.53,166.68,4.9,'1111122,1111122,1111122' 
COMPS,ioos:station:USF.COMPS:SHP:1,2016-07-01T03:00:00Z,30.0600,-84.2910,10.0,3.28,164.78,4.9,'1111122,1111122,1111122' 
COMPS,ioos:station:USF.COMPS:SHP:1,2016-07-01T03:06:00Z,30.0600,-84.2910,10.0,3.55,162.15,4.7,'1111122,1111122,1111122' 
COMPS,ioos:station:USF.COMPS:SHP:1,2016-07-01T03:12:00Z,30.0600,-84.2910,10.0,3.12,171.99,4.5,'1111122,1111122,1111122' 
COMPS,ioos:station:USF.COMPS:SHP:1,2016-07-01T03:18:00Z,30.0600,-84.2910,10.0,3.29,163.49,4.9,'1111122,1111122,1111122' 
COMPS,ioos:station:USF.COMPS:SHP:1,2016-07-01T03:24:00Z,30.0600,-84.2910,10.0,3.2,160.72,4.31,'1111122,1111122,1111122' 
COMPS,ioos:station:USF.COMPS:SHP:1,2016-07-01T03:30:00Z,30.0600,-84.2910,10.0,2.85,160.34,3.92,'1111122,1111122,1111122' 
COMPS,ioos:station:USF.COMPS:SHP:1,2016-07-01T03:36:00Z,30.0600,-84.2910,10.0,2.95,164.45,3.62,'1111122,1111122,1111122' 
COMPS,ioos:station:USF.COMPS:SHP:1,2016-07-01T03:42:00Z,30.0600,-84.2910,10.0,2.67,159.67,3.62,'1111122,1111122,1111122' 
COMPS,ioos:station:USF.COMPS:SHP:1,2016-07-01T03:48:00Z,30.0600,-84.2910,10.0,3.21,150.81,4.21,'1111122,1111122,1111122' 
COMPS,ioos:station:USF.COMPS:SHP:1,2016-07-01T03:54:00Z,30.0600,-84.2910,10.0,3.61,150.66,4.7,'1111122,1111122,1111122' 
COMPS,ioos:station:USF.COMPS:SHP:1,2016-07-01T04:00:00Z,30.0600,-84.2910,10.0,4.02,159.77,5.09,'1111122,1111122,1111122' 
COMPS,ioos:station:USF.COMPS:SHP:1,2016-07-01T04:06:00Z,30.0600,-84.2910,10.0,3.97,166.1,5.09,'1111122,1111122,1111122' 
COMPS,ioos:station:USF.COMPS:SHP:1,2016-07-01T04:12:00Z,30.0600,-84.2910,10.0,3.42,170.17,4.99,'1111122,1111122,1111122' 
COMPS,ioos:station:USF.COMPS:SHP:1,2016-07-01T04:18:00Z,30.0600,-84.2910,10.0,3.55,167.57,4.7,'1111122,1111122,1111122' 
COMPS,ioos:station:USF.COMPS:SHP:1,2016-07-01T04:24:00Z,30.0600,-84.2910,10.0,3.18,167.19,4.11,'1111122,1111122,1111122' 
COMPS,ioos:station:USF.COMPS:SHP:1,2016-07-01T04:30:00Z,30.0600,-84.2910,10.0,3.54,167.18,5.29,'1111122,1111122,1111122' 
COMPS,ioos:station:USF.COMPS:SHP:1,2016-07-01T04:36:00Z,30.0600,-84.2910,10.0,2.96,172.97,4.6,'1111122,1111122,1111122' 
COMPS,ioos:station:USF.COMPS:SHP:1,2016-07-01T04:42:00Z,30.0600,-84.2910,10.0,2.33,178.21,4.21,'1111122,1111122,1111122' 
COMPS,ioos:station:USF.COMPS:SHP:1,2016-07-01T04:48:00Z,30.0600,-84.2910,10.0,2.39,187.07,4.5,'1111122,1111122,1111122' 
COMPS,ioos:station:USF.COMPS:SHP:1,2016-07-01T04:54:00Z,30.0600,-84.2910,10.0,3.1,188.17,4.31,'1111122,1111122,1111122' 
COMPS,ioos:station:USF.COMPS:SHP:1,2016-07-01T05:00:00Z,30.0600,-84.2910,10.0,2.77,189.81,5.09,'1111122,1111122,1111122' 
COMPS,ioos:station:USF.COMPS:SHP:1,2016-07-01T05:06:00Z,30.0600,-84.2910,10.0,2.72,182.74,3.72,'1111122,1111122,1111122' 
COMPS,ioos:station:USF.COMPS:SHP:1,2016-07-01T05:12:00Z,30.0600,-84.2910,10.0,2.53,187.62,4.41,'1111122,1111122,1111122' 
COMPS,ioos:station:USF.COMPS:SHP:1,2016-07-01T05:18:00Z,30.0600,-84.2910,10.0,3.55,191.03,4.99,'1111122,1111122,1111122' 
COMPS,ioos:station:USF.COMPS:SHP:1,2016-07-01T05:24:00Z,30.0600,-84.2910,10.0,3.08,188.0,4.9,'1111122,1111122,1111122' 
COMPS,ioos:station:USF.COMPS:SHP:1,2016-07-01T05:30:00Z,30.0600,-84.2910,10.0,2.92,188.65,4.9,'1111122,1111122,1111122' 
COMPS,ioos:station:USF.COMPS:SHP:1,2016-07-01T05:36:00Z,30.0600,-84.2910,10.0,3.49,191.6,4.99,'1111122,1111122,1111122' 
COMPS,ioos:station:USF.COMPS:SHP:1,2016-07-01T05:42:00Z,30.0600,-84.2910,10.0,1.89,189.69,4.11,'1111122,1111122,1111122' 
COMPS,ioos:station:USF.COMPS:SHP:1,2016-07-01T05:48:00Z,30.0600,-84.2910,10.0,2.59,183.82,4.01,'1111122,1111122,1111122' 
COMPS,ioos:station:USF.COMPS:SHP:1,2016-07-01T05:54:00Z,30.0600,-84.2910,10.0,2.67,193.52,4.11,'1111122,1111122,1111122' 
COMPS,ioos:station:USF.COMPS:SHP:1,2016-07-01T06:00:00Z,30.0600,-84.2910,10.0,2.34,189.73,4.31,'1111122,1111122,1111122' 
COMPS,ioos:station:USF.COMPS:SHP:1,2016-07-01T06:06:00Z,30.0600,-84.2910,10.0,0.96,188.26,2.94,'1111122,1111122,1111122' 
COMPS,ioos:station:USF.COMPS:SHP:1,2016-07-01T06:12:00Z,30.0600,-84.2910,10.0,1.41,190.69,3.13,'1111122,1111122,1111122' 
COMPS,ioos:station:USF.COMPS:SHP:1,2016-07-01T06:18:00Z,30.0600,-84.2910,10.0,1.0,184.47,2.64,'1111122,1111122,1111122' 
COMPS,ioos:station:USF.COMPS:SHP:1,2016-07-01T06:24:00Z,30.0600,-84.2910,10.0,1.57,178.1,3.43,'1111122,1111122,1111122' 
COMPS,ioos:station:USF.COMPS:SHP:1,2016-07-01T06:30:00Z,30.0600,-84.2910,10.0,2.7,213.56,4.11,'1111122,1111122,1111122' 
COMPS,ioos:station:USF.COMPS:SHP:1,2016-07-01T06:36:00Z,30.0600,-84.2910,10.0,2.78,215.46,3.92,'1111122,1111122,1111122' 
COMPS,ioos:station:USF.COMPS:SHP:1,2016-07-01T06:42:00Z,30.0600,-84.2910,10.0,3.01,218.68,3.92,'1111122,1111122,1111122' 
COMPS,ioos:station:USF.COMPS:SHP:1,2016-07-01T06:48:00Z,30.0600,-84.2910,10.0,3.21,219.61,4.21,'1111122,1111122,1111122' 
COMPS,ioos:station:USF.COMPS:SHP:1,2016-07-01T06:54:00Z,30.0600,-84.2910,10.0,2.89,218.49,4.21,'1111122,1111122,1111122' 
COMPS,ioos:station:USF.COMPS:SHP:1,2016-07-01T07:00:00Z,30.0600,-84.2910,10.0,3.49,219.1,4.6,'1111122,1111122,1111122' 
COMPS,ioos:station:USF.COMPS:SHP:1,2016-07-01T07:06:00Z,30.0600,-84.2910,10.0,3.46,220.89,4.6,'1111122,1111122,1111122' 
COMPS,ioos:station:USF.COMPS:SHP:1,2016-07-01T07:12:00Z,30.0600,-84.2910,10.0,3.33,219.21,4.21,'1111122,1111122,1111122' 
COMPS,ioos:station:USF.COMPS:SHP:1,2016-07-01T07:18:00Z,30.0600,-84.2910,10.0,3.47,217.93,4.31,'1111122,1111122,1111122' 
COMPS,ioos:station:USF.COMPS:SHP:1,2016-07-01T07:24:00Z,30.0600,-84.2910,10.0,3.28,216.58,4.5,'1111122,1111122,1111122' 
COMPS,ioos:station:USF.COMPS:SHP:1,2016-07-01T07:30:00Z,30.0600,-84.2910,10.0,2.86,216.59,3.82,'1111122,1111122,1111122' 
COMPS,ioos:station:USF.COMPS:SHP:1,2016-07-01T07:36:00Z,30.0600,-84.2910,10.0,2.89,208.74,4.01,'1111122,1111122,1111122' 
COMPS,ioos:station:USF.COMPS:SHP:1,2016-07-01T07:42:00Z,30.0600,-84.2910,10.0,3.33,199.02,4.7,'1111122,1111122,1111122' 
COMPS,ioos:station:USF.COMPS:SHP:1,2016-07-01T07:48:00Z,30.0600,-84.2910,10.0,3.05,192.56,4.8,'1111122,1111122,1111122' 
COMPS,ioos:station:USF.COMPS:SHP:1,2016-07-01T07:54:00Z,30.0600,-84.2910,10.0,4.08,195.37,5.09,'1111122,1111122,1111122' 
COMPS,ioos:station:USF.COMPS:SHP:1,2016-07-01T08:00:00Z,30.0600,-84.2910,10.0,4.05,207.14,5.58,'1111122,1111122,1111122' 
COMPS,ioos:station:USF.COMPS:SHP:1,2016-07-01T08:06:00Z,30.0600,-84.2910,10.0,4.21,200.1,5.19,'1111122,1111122,1111122' 
COMPS,ioos:station:USF.COMPS:SHP:1,2016-07-01T08:12:00Z,30.0600,-84.2910,10.0,4.42,201.61,5.48,'1111122,1111122,1111122' 
COMPS,ioos:station:USF.COMPS:SHP:1,2016-07-01T08:18:00Z,30.0600,-84.2910,10.0,4.15,204.36,4.99,'1111122,1111122,1111122' 
COMPS,ioos:station:USF.COMPS:SHP:1,2016-07-01T08:24:00Z,30.0600,-84.2910,10.0,4.48,210.68,5.39,'1111122,1111122,1111122' 
COMPS,ioos:station:USF.COMPS:SHP:1,2016-07-01T08:30:00Z,30.0600,-84.2910,10.0,4.35,214.67,5.19,'1111122,1111122,1111122' 
COMPS,ioos:station:USF.COMPS:SHP:1,2016-07-01T08:36:00Z,30.0600,-84.2910,10.0,4.61,214.1,5.87,'1111122,1111122,1111122' 
COMPS,ioos:station:USF.COMPS:SHP:1,2016-07-01T08:42:00Z,30.0600,-84.2910,10.0,3.93,217.8,4.7,'1111122,1111122,1111122' 
COMPS,ioos:station:USF.COMPS:SHP:1,2016-07-01T08:48:00Z,30.0600,-84.2910,10.0,3.39,220.07,4.31,'1111122,1111122,1111122' 
COMPS,ioos:station:USF.COMPS:SHP:1,2016-07-01T08:54:00Z,30.0600,-84.2910,10.0,3.02,224.28,3.72,'1111122,1111122,1111122' 
COMPS,ioos:station:USF.COMPS:SHP:1,2016-07-01T09:00:00Z,30.0600,-84.2910,10.0,1.98,227.59,3.43,'1111122,1111122,1111122' 
COMPS,ioos:station:USF.COMPS:SHP:1,2016-07-01T09:06:00Z,30.0600,-84.2910,10.0,1.67,245.75,3.33,'1111122,1111122,1111122' 
COMPS,ioos:station:USF.COMPS:SHP:1,2016-07-01T09:12:00Z,30.0600,-84.2910,10.0,1.18,273.5,2.74,'1111122,1111122,1111122' 
COMPS,ioos:station:USF.COMPS:SHP:1,2016-07-01T09:18:00Z,30.0600,-84.2910,10.0,0.09,295.54,0.09,'1111122,1111122,1111122' 
COMPS,ioos:station:USF.COMPS:SHP:1,2016-07-01T09:24:00Z,30.0600,-84.2910,10.0,0.09,277.07,0.09,'1111122,1111122,1111122' 
COMPS,ioos:station:USF.COMPS:SHP:1,2016-07-01T09:30:00Z,30.0600,-84.2910,10.0,0.09,289.25,0.09,'1111122,1111122,1111122' 
COMPS,ioos:station:USF.COMPS:SHP:1,2016-07-01T09:36:00Z,30.0600,-84.2910,10.0,0.1,292.15,0.19,'1111122,1111122,1111122' 
COMPS,ioos:station:USF.COMPS:SHP:1,2016-07-01T09:42:00Z,30.0600,-84.2910,10.0,0.1,292.41,0.19,'1111122,1111122,1111122' 
COMPS,ioos:station:USF.COMPS:SHP:1,2016-07-01T09:48:00Z,30.0600,-84.2910,10.0,0.09,294.02,0.09,'1111122,1111122,1111122' 
COMPS,ioos:station:USF.COMPS:SHP:1,2016-07-01T09:54:00Z,30.0600,-84.2910,10.0,0.09,297.97,0.09,'1111122,1111122,1111122' 
COMPS,ioos:station:USF.COMPS:SHP:1,2016-07-01T10:00:00Z,30.0600,-84.2910,10.0,0.09,303.32,0.09,'1111122,1111122,1111122' 
COMPS,ioos:station:USF.COMPS:SHP:1,2016-07-01T10:06:00Z,30.0600,-84.2910,10.0,0.09,317.74,0.09,'1111122,1111122,1111122' 
COMPS,ioos:station:USF.COMPS:SHP:1,2016-07-01T10:12:00Z,30.0600,-84.2910,10.0,0.09,323.61,0.09,'1111122,1111122,1111122' 
COMPS,ioos:station:USF.COMPS:SHP:1,2016-07-01T10:18:00Z,30.0600,-84.2910,10.0,0.09,322.23,0.09,'1111122,1111122,1111122' 
COMPS,ioos:station:USF.COMPS:SHP:1,2016-07-01T10:24:00Z,30.0600,-84.2910,10.0,0.09,330.51,0.09,'1111122,1111122,1111122' 
COMPS,ioos:station:USF.COMPS:SHP:1,2016-07-01T10:30:00Z,30.0600,-84.2910,10.0,0.09,321.95,0.09,'1111122,1111122,1111122' 
COMPS,ioos:station:USF.COMPS:SHP:1,2016-07-01T10:36:00Z,30.0600,-84.2910,10.0,0.09,315.36,0.09,'1111122,1111122,1111122' 
COMPS,ioos:station:USF.COMPS:SHP:1,2016-07-01T10:42:00Z,30.0600,-84.2910,10.0,0.09,315.03,0.09,'1111122,1111122,1111122' 
COMPS,ioos:station:USF.COMPS:SHP:1,2016-07-01T10:48:00Z,30.0600,-84.2910,10.0,0.09,320.29,0.09,'1111122,1111122,1111122' 
COMPS,ioos:station:USF.COMPS:SHP:1,2016-07-01T10:54:00Z,30.0600,-84.2910,10.0,0.09,328.57,0.09,'1111122,1111122,1111122' 
COMPS,ioos:station:USF.COMPS:SHP:1,2016-07-01T11:00:00Z,30.0600,-84.2910,10.0,0.09,339.94,0.09,'1111122,1111122,1111122' 
COMPS,ioos:station:USF.COMPS:SHP:1,2016-07-01T11:06:00Z,30.0600,-84.2910,10.0,0.09,358.19,0.09,'1111122,1111122,1111122' 
COMPS,ioos:station:USF.COMPS:SHP:1,2016-07-01T11:12:00Z,30.0600,-84.2910,10.0,0.09,344.5,0.09,'1111122,1111122,1111122' 
COMPS,ioos:station:USF.COMPS:SHP:1,2016-07-01T11:18:00Z,30.0600,-84.2910,10.0,0.09,343.87,0.09,'1111122,1111122,1111122' 
COMPS,ioos:station:USF.COMPS:SHP:1,2016-07-01T11:24:00Z,30.0600,-84.2910,10.0,0.09,347.24,0.09,'1111122,1111122,1111122' 
COMPS,ioos:station:USF.COMPS:SHP:1,2016-07-01T11:30:00Z,30.0600,-84.2910,10.0,0.09,339.78,0.09,'1111122,1111122,1111122' 
COMPS,ioos:station:USF.COMPS:SHP:1,2016-07-01T11:36:00Z,30.0600,-84.2910,10.0,0.09,352.21,0.09,'1111122,1111122,1111122' 
COMPS,ioos:station:USF.COMPS:SHP:1,2016-07-01T11:42:00Z,30.0600,-84.2910,10.0,0.1,3.26,0.19,'1111122,1111122,1111122' 
COMPS,ioos:station:USF.COMPS:SHP:1,2016-07-01T11:48:00Z,30.0600,-84.2910,10.0,0.09,20.04,0.09,'1111122,1111122,1111122' 
COMPS,ioos:station:USF.COMPS:SHP:1,2016-07-01T11:54:00Z,30.0600,-84.2910,10.0,0.09,65.73,0.09,'1111122,1111122,1111122' 
COMPS,ioos:station:USF.COMPS:SHP:1,2016-07-01T12:00:00Z,30.0600,-84.2910,10.0,0.09,44.33,0.09,'1111122,1111122,1111122' 
COMPS,ioos:station:USF.COMPS:SHP:1,2016-07-01T12:06:00Z,30.0600,-84.2910,10.0,0.1,1.3,0.19,'1111122,1111122,1111122' 
COMPS,ioos:station:USF.COMPS:SHP:1,2016-07-01T12:12:00Z,30.0600,-84.2910,10.0,0.09,1.49,0.09,'1111122,1111122,1111122' 
COMPS,ioos:station:USF.COMPS:SHP:1,2016-07-01T12:18:00Z,30.0600,-84.2910,10.0,0.09,8.67,0.09,'1111122,1111122,1111122' 
COMPS,ioos:station:USF.COMPS:SHP:1,2016-07-01T12:24:00Z,30.0600,-84.2910,10.0,0.09,28.05,0.09,'1111122,1111122,1111122' 
COMPS,ioos:station:USF.COMPS:SHP:1,2016-07-01T12:30:00Z,30.0600,-84.2910,10.0,0.1,40.72,0.19,'1111122,1111122,1111122' 
COMPS,ioos:station:USF.COMPS:SHP:1,2016-07-01T12:36:00Z,30.0600,-84.2910,10.0,0.09,25.95,0.09,'1111122,1111122,1111122' 
COMPS,ioos:station:USF.COMPS:SHP:1,2016-07-01T12:42:00Z,30.0600,-84.2910,10.0,0.09,344.73,0.09,'1111122,1111122,1111122' 
COMPS,ioos:station:USF.COMPS:SHP:1,2016-07-01T12:48:00Z,30.0600,-84.2910,10.0,0.09,280.36,0.09,'1111122,1111122,1111122' 
COMPS,ioos:station:USF.COMPS:SHP:1,2016-07-01T12:54:00Z,30.0600,-84.2910,10.0,0.23,256.56,2.94,'1111122,1111122,1111122' 
COMPS,ioos:station:USF.COMPS:SHP:1,2016-07-01T13:00:00Z,30.0600,-84.2910,10.0,7.41,249.37,10.87,'1111122,1111122,1111122' 
COMPS,ioos:station:USF.COMPS:SHP:1,2016-07-01T13:06:00Z,30.0600,-84.2910,10.0,8.34,267.5,9.99,'1111122,1111122,1111122' 
COMPS,ioos:station:USF.COMPS:SHP:1,2016-07-01T13:12:00Z,30.0600,-84.2910,10.0,6.35,273.64,8.62,'1111122,1111122,1111122' 
COMPS,ioos:station:USF.COMPS:SHP:1,2016-07-01T13:18:00Z,30.0600,-84.2910,10.0,5.87,272.08,6.95,'1111122,1111122,1111122' 
COMPS,ioos:station:USF.COMPS:SHP:1,2016-07-01T13:24:00Z,30.0600,-84.2910,10.0,5.0,273.31,6.76,'1111122,1111122,1111122' 
COMPS,ioos:station:USF.COMPS:SHP:1,2016-07-01T13:30:00Z,30.0600,-84.2910,10.0,3.02,286.12,4.99,'1111122,1111122,1111122' 
COMPS,ioos:station:USF.COMPS:SHP:1,2016-07-01T13:36:00Z,30.0600,-84.2910,10.0,3.04,289.17,5.29,'1111122,1111122,1111122' 
COMPS,ioos:station:USF.COMPS:SHP:1,2016-07-01T13:42:00Z,30.0600,-84.2910,10.0,3.27,296.37,4.8,'1111122,1111122,1111122' 
COMPS,ioos:station:USF.COMPS:SHP:1,2016-07-01T13:48:00Z,30.0600,-84.2910,10.0,1.94,311.95,4.21,'1111122,1111122,1111122' 
COMPS,ioos:station:USF.COMPS:SHP:1,2016-07-01T13:54:00Z,30.0600,-84.2910,10.0,1.78,311.94,3.92,'1111122,1111122,1111122' 
COMPS,ioos:station:USF.COMPS:SHP:1,2016-07-01T14:00:00Z,30.0600,-84.2910,10.0,1.47,303.92,3.62,'1111122,1111122,1111122' 
COMPS,ioos:station:USF.COMPS:SHP:1,2016-07-01T14:06:00Z,30.0600,-84.2910,10.0,1.36,303.59,3.13,'1111122,1111122,1111122' 
COMPS,ioos:station:USF.COMPS:SHP:1,2016-07-01T14:12:00Z,30.0600,-84.2910,10.0,0.58,308.37,2.84,'1111122,1111122,1111122' 
COMPS,ioos:station:USF.COMPS:SHP:1,2016-07-01T14:18:00Z,30.0600,-84.2910,10.0,0.23,318.78,1.56,'1111122,1111122,1111122' 
COMPS,ioos:station:USF.COMPS:SHP:1,2016-07-01T14:24:00Z,30.0600,-84.2910,10.0,0.09,310.9,0.09,'1111122,1111122,1111122' 
COMPS,ioos:station:USF.COMPS:SHP:1,2016-07-01T14:30:00Z,30.0600,-84.2910,10.0,0.09,290.08,0.09,'1111122,1111122,1111122' 
COMPS,ioos:station:USF.COMPS:SHP:1,2016-07-01T14:36:00Z,30.0600,-84.2910,10.0,0.11,286.01,0.78,'1111122,1111122,1111122' 
COMPS,ioos:station:USF.COMPS:SHP:1,2016-07-01T14:42:00Z,30.0600,-84.2910,10.0,0.09,285.38,0.09,'1111122,1111122,1111122' 
COMPS,ioos:station:USF.COMPS:SHP:1,2016-07-01T14:48:00Z,30.0600,-84.2910,10.0,0.09,268.07,0.09,'1111122,1111122,1111122' 
COMPS,ioos:station:USF.COMPS:SHP:1,2016-07-01T14:54:00Z,30.0600,-84.2910,10.0,0.09,287.98,0.09,'1111122,1111122,1111122' 
COMPS,ioos:station:USF.COMPS:SHP:1,2016-07-01T15:00:00Z,30.0600,-84.2910,10.0,0.09,310.03,0.09,'1111122,1111122,1111122' 
COMPS,ioos:station:USF.COMPS:SHP:1,2016-07-01T15:06:00Z,30.0600,-84.2910,10.0,0.09,264.91,0.09,'1111122,1111122,1111122' 
COMPS,ioos:station:USF.COMPS:SHP:1,2016-07-01T15:12:00Z,30.0600,-84.2910,10.0,0.09,239.55,0.09,'1111122,1111122,1111122' 
COMPS,ioos:station:USF.COMPS:SHP:1,2016-07-01T15:18:00Z,30.0600,-84.2910,10.0,0.09,205.46,0.09,'1111122,1111122,1111122' 
COMPS,ioos:station:USF.COMPS:SHP:1,2016-07-01T15:24:00Z,30.0600,-84.2910,10.0,0.09,185.13,0.09,'1111122,1111122,1111122' 
COMPS,ioos:station:USF.COMPS:SHP:1,2016-07-01T15:30:00Z,30.0600,-84.2910,10.0,0.09,202.9,0.09,'1111122,1111122,1111122' 
COMPS,ioos:station:USF.COMPS:SHP:1,2016-07-01T15:36:00Z,30.0600,-84.2910,10.0,0.09,197.76,0.09,'1111122,1111122,1111122' 
COMPS,ioos:station:USF.COMPS:SHP:1,2016-07-01T15:42:00Z,30.0600,-84.2910,10.0,0.09,133.77,0.09,'1111122,1111122,1111122' 
COMPS,ioos:station:USF.COMPS:SHP:1,2016-07-01T15:48:00Z,30.0600,-84.2910,10.0,0.09,141.86,0.09,'1111122,1111122,1111122' 
COMPS,ioos:station:USF.COMPS:SHP:1,2016-07-01T15:54:00Z,30.0600,-84.2910,10.0,0.09,176.56,0.09,'1111122,1111122,1111122' 
COMPS,ioos:station:USF.COMPS:SHP:1,2016-07-01T16:00:00Z,30.0600,-84.2910,10.0,0.09,199.92,0.09,'1111122,1111122,1111122' 
COMPS,ioos:station:USF.COMPS:SHP:1,2016-07-01T16:06:00Z,30.0600,-84.2910,10.0,0.09,229.31,0.09,'1111122,1111122,1111122' 
COMPS,ioos:station:USF.COMPS:SHP:1,2016-07-01T16:12:00Z,30.0600,-84.2910,10.0,0.1,239.96,0.19,'1111122,1111122,1111122' 
COMPS,ioos:station:USF.COMPS:SHP:1,2016-07-01T16:18:00Z,30.0600,-84.2910,10.0,0.09,239.13,0.09,'1111122,1111122,1111122' 
COMPS,ioos:station:USF.COMPS:SHP:1,2016-07-01T16:24:00Z,30.0600,-84.2910,10.0,0.14,245.32,1.86,'1111122,1111122,1111122' 
COMPS,ioos:station:USF.COMPS:SHP:1,2016-07-01T16:30:00Z,30.0600,-84.2910,10.0,0.09,240.54,0.09,'1111122,1111122,1111122' 
COMPS,ioos:station:USF.COMPS:SHP:1,2016-07-01T16:36:00Z,30.0600,-84.2910,10.0,0.1,238.44,0.19,'1111122,1111122,1111122' 
COMPS,ioos:station:USF.COMPS:SHP:1,2016-07-01T16:42:00Z,30.0600,-84.2910,10.0,0.09,246.68,0.09,'1111122,1111122,1111122' 
COMPS,ioos:station:USF.COMPS:SHP:1,2016-07-01T16:48:00Z,30.0600,-84.2910,10.0,0.09,258.49,0.09,'1111122,1111122,1111122' 
COMPS,ioos:station:USF.COMPS:SHP:1,2016-07-01T16:54:00Z,30.0600,-84.2910,10.0,0.09,246.76,0.09,'1111122,1111122,1111122' 
COMPS,ioos:station:USF.COMPS:SHP:1,2016-07-01T17:00:00Z,30.0600,-84.2910,10.0,0.09,242.21,0.09,'1111122,1111122,1111122' 
COMPS,ioos:station:USF.COMPS:SHP:1,2016-07-01T17:06:00Z,30.0600,-84.2910,10.0,0.1,239.41,0.19,'1111122,1111122,1111122' 
COMPS,ioos:station:USF.COMPS:SHP:1,2016-07-01T17:12:00Z,30.0600,-84.2910,10.0,0.15,238.4,2.25,'1111122,1111122,1111122' 
COMPS,ioos:station:USF.COMPS:SHP:1,2016-07-01T17:18:00Z,30.0600,-84.2910,10.0,4.67,291.42,6.56,'1111122,1111122,1111122' 
COMPS,ioos:station:USF.COMPS:SHP:1,2016-07-01T17:24:00Z,30.0600,-84.2910,10.0,4.46,295.62,6.76,'1111122,1111122,1111122' 
COMPS,ioos:station:USF.COMPS:SHP:1,2016-07-01T17:30:00Z,30.0600,-84.2910,10.0,3.63,292.14,6.07,'1111122,1111122,1111122' 
COMPS,ioos:station:USF.COMPS:SHP:1,2016-07-01T17:36:00Z,30.0600,-84.2910,10.0,3.62,294.37,6.07,'1111122,1111122,1111122' 
COMPS,ioos:station:USF.COMPS:SHP:1,2016-07-01T17:42:00Z,30.0600,-84.2910,10.0,3.96,297.57,5.39,'1111122,1111122,1111122' 
COMPS,ioos:station:USF.COMPS:SHP:1,2016-07-01T17:48:00Z,30.0600,-84.2910,10.0,2.31,299.99,4.21,'1111122,1111122,1111122' 
COMPS,ioos:station:USF.COMPS:SHP:1,2016-07-01T17:54:00Z,30.0600,-84.2910,10.0,1.81,296.62,3.43,'1111122,1111122,1111122' 
COMPS,ioos:station:USF.COMPS:SHP:1,2016-07-01T18:00:00Z,30.0600,-84.2910,10.0,0.42,301.4,2.15,'1111122,1111122,1111122' 
COMPS,ioos:station:USF.COMPS:SHP:1,2016-07-01T18:06:00Z,30.0600,-84.2910,10.0,0.09,283.17,0.09,'1111122,1111122,1111122' 
COMPS,ioos:station:USF.COMPS:SHP:1,2016-07-01T18:12:00Z,30.0600,-84.2910,10.0,0.09,276.29,0.09,'1111122,1111122,1111122' 
COMPS,ioos:station:USF.COMPS:SHP:1,2016-07-01T18:18:00Z,30.0600,-84.2910,10.0,0.09,284.57,0.09,'1111122,1111122,1111122' 
COMPS,ioos:station:USF.COMPS:SHP:1,2016-07-01T18:24:00Z,30.0600,-84.2910,10.0,0.09,291.86,0.09,'1111122,1111122,1111122' 
COMPS,ioos:station:USF.COMPS:SHP:1,2016-07-01T18:30:00Z,30.0600,-84.2910,10.0,0.09,294.48,0.09,'1111122,1111122,1111122' 
COMPS,ioos:station:USF.COMPS:SHP:1,2016-07-01T18:36:00Z,30.0600,-84.2910,10.0,0.09,290.4,0.09,'1111122,1111122,1111122' 
COMPS,ioos:station:USF.COMPS:SHP:1,2016-07-01T18:42:00Z,30.0600,-84.2910,10.0,0.09,287.55,0.09,'1111122,1111122,1111122' 
COMPS,ioos:station:USF.COMPS:SHP:1,2016-07-01T18:48:00Z,30.0600,-84.2910,10.0,0.09,282.42,0.09,'1111122,1111122,1111122' 
COMPS,ioos:station:USF.COMPS:SHP:1,2016-07-01T18:54:00Z,30.0600,-84.2910,10.0,0.09,291.79,0.09,'1111122,1111122,1111122' 
COMPS,ioos:station:USF.COMPS:SHP:1,2016-07-01T19:00:00Z,30.0600,-84.2910,10.0,0.09,276.46,0.09,'1111122,1111122,1111122' 
COMPS,ioos:station:USF.COMPS:SHP:1,2016-07-01T19:06:00Z,30.0600,-84.2910,10.0,0.1,275.55,0.19,'1111122,1111122,1111122' 
COMPS,ioos:station:USF.COMPS:SHP:1,2016-07-01T19:12:00Z,30.0600,-84.2910,10.0,0.3,268.14,1.66,'1111122,1111122,1111122' 
COMPS,ioos:station:USF.COMPS:SHP:1,2016-07-01T19:18:00Z,30.0600,-84.2910,10.0,0.09,255.83,0.09,'1111122,1111122,1111122' 
COMPS,ioos:station:USF.COMPS:SHP:1,2016-07-01T19:24:00Z,30.0600,-84.2910,10.0,0.09,261.95,0.09,'1111122,1111122,1111122' 
COMPS,ioos:station:USF.COMPS:SHP:1,2016-07-01T19:30:00Z,30.0600,-84.2910,10.0,0.09,276.92,0.09,'1111122,1111122,1111122' 